Miami, FL

6:02 AM EST on December 10, 2019 (GMT -0500)
Miami International

Weather History for KMIA - October, 2019

Change the Weather History Date:

Saturday, October 19, 2019

  Actual Average Record
Temperature  
Mean Temperature 84 °F 80 °F  
Max Temperature 87 °F 86 °F 92 °F (1989)
Min Temperature 80 °F 73 °F 53 °F (1927)
Degree Days  
Heating Degree Days 0 0  
Month to date heating degree days 0 0  
Since 1 July heating degree days 0 0  
Cooling Degree Days 19 14  
Month to date cooling degree days 346 301  
Year to date cooling degree days 4437 3913  
Growing Degree Days 34 (Base 50)    
Moisture  
Dew Point 75 °F    
Average Humidity 72    
Maximum Humidity 79    
Minimum Humidity 65    
Precipitation  
Precipitation 0.14 in 0.18 in 3.92 in (1929)
Month to date precipitation 3.31 4.51  
Year to date precipitation 58.48 54.77  
Snow  
Snow 0.00 in - - ()
Month to date snowfall 0.0  
Since 1 July snowfall 0.0  
Since 1 September snowfall 0.0  
Snow Depth 0.00 in    
Sea Level Pressure  
Sea Level Pressure 29.88 in    
Wind  
Wind Speed 10 mph (SSE)    
Max Wind Speed 17 mph    
Max Gust Speed 25 mph    
Visibility 10 miles    
Events Rain    
T = Trace of Precipitation, MM = Missing Value Source: NWS Daily Summary

Daily Weather History Graph

Daily Weather History Graph

Search for Another Location

Airport or City:

Astronomy

Oct. 19, 2019 Rise Set
Actual Time 7:21 AM EDT 6:50 PM EDT
Civil Twilight 6:58 AM EDT 7:13 PM EDT
Nautical Twilight 6:31 AM EDT 7:40 PM EDT
Astronomical Twilight 6:05 AM EDT 8:06 PM EDT
Moon 11:20 PM EDT (10/19) 12:29 PM EDT (10/19)
Length of Visible Light 12h 14m
Length of Day
11h 28m
Waning Gibbous, 70% of the Moon is Illuminated
Oct 19
Waning Gibbous
Oct 21
Last Quarter
Oct 27
New
Nov 4
First Quarter
Nov 12
Full

Hourly Weather History & Observations

Time (EDT) Temp. Heat Index Dew Point Humidity Pressure Visibility Wind Dir Wind Speed Gust Speed Precip Events Conditions
12:53 AM 82.9 °F 89.4 °F 73.9 °F 74% 29.87 in 10.0 mi SE 11.5 mph - N/A   Overcast
1:53 AM 82.9 °F 89.4 °F 73.9 °F 74% 29.86 in 10.0 mi SE 10.4 mph - N/A   Overcast
2:53 AM 82.9 °F 89.4 °F 73.9 °F 74% 29.85 in 10.0 mi ESE 15.0 mph - N/A   Mostly Cloudy
3:53 AM 82.9 °F 89.4 °F 73.9 °F 74% 29.83 in 10.0 mi SE 11.5 mph - N/A   Mostly Cloudy
4:53 AM 82.9 °F 90.2 °F 75.0 °F 77% 29.85 in 10.0 mi SE 11.5 mph 18.4 mph N/A   Mostly Cloudy
5:16 AM 80.1 °F 84.5 °F 73.9 °F 81% 29.86 in 3.0 mi South 9.2 mph 24.2 mph 0.11 in Rain Heavy Rain
5:39 AM 80.1 °F 84.2 °F 73.0 °F 79% 29.85 in 10.0 mi SSE 6.9 mph - 0.14 in   Mostly Cloudy
5:53 AM 80.1 °F 84.2 °F 73.0 °F 79% 29.86 in 10.0 mi South 8.1 mph - 0.14 in   Overcast
6:53 AM 81.0 °F 86.2 °F 73.9 °F 79% 29.88 in 10.0 mi SE 4.6 mph - N/A   Overcast
7:53 AM 82.0 °F 89.4 °F 75.9 °F 82% 29.85 in 10.0 mi SE 10.4 mph - N/A   Overcast
8:53 AM 82.9 °F 90.8 °F 75.9 °F 79% 29.90 in 10.0 mi SE 9.2 mph 16.1 mph N/A   Overcast
9:53 AM 82.9 °F 90.8 °F 75.9 °F 79% 29.92 in 10.0 mi South 6.9 mph - N/A   Overcast
10:53 AM 84.0 °F 92.6 °F 75.9 °F 76% 29.92 in 10.0 mi SSE 9.2 mph - N/A   Overcast
11:53 AM 86.0 °F 95.1 °F 75.0 °F 70% 29.91 in 10.0 mi South 11.5 mph 24.2 mph N/A   Overcast
12:53 PM 86.0 °F 93.0 °F 73.0 °F 65% 29.89 in 10.0 mi South 11.5 mph - N/A   Overcast
1:53 PM 84.9 °F 93.3 °F 75.0 °F 72% 29.88 in 10.0 mi SSE 12.7 mph - 0.00 in Rain Light Rain
2:53 PM 87.1 °F 95.4 °F 73.9 °F 65% 29.87 in 10.0 mi SSW 16.1 mph - 0.00 in   Overcast
3:53 PM 86.0 °F 93.8 °F 73.9 °F 67% 29.86 in 10.0 mi South 10.4 mph - N/A   Overcast
4:53 PM 86.0 °F 93.0 °F 73.0 °F 65% 29.86 in 10.0 mi South 10.4 mph 23.0 mph N/A   Overcast
5:53 PM 84.9 °F 92.1 °F 73.9 °F 69% 29.86 in 10.0 mi SSE 11.5 mph 17.3 mph N/A   Overcast
6:53 PM 84.0 °F 91.2 °F 73.9 °F 72% 29.87 in 10.0 mi SSE 9.2 mph - N/A   Mostly Cloudy
7:53 PM 82.9 °F 90.2 °F 75.0 °F 77% 29.88 in 10.0 mi SSE 6.9 mph - N/A   Mostly Cloudy
8:53 PM 82.9 °F 90.8 °F 75.9 °F 79% 29.88 in 10.0 mi SSE 10.4 mph - N/A   Mostly Cloudy
9:53 PM 82.9 °F 90.8 °F 75.9 °F 79% 29.91 in 10.0 mi SSE 8.1 mph - N/A   Mostly Cloudy
10:53 PM 82.9 °F 90.8 °F 75.9 °F 79% 29.92 in 10.0 mi SSE 8.1 mph - N/A   Mostly Cloudy
11:53 PM 82.9 °F 90.8 °F 75.9 °F 79% 29.92 in 10.0 mi Variable 6.9 mph - N/A   Mostly Cloudy